Cairns, Queensland

5:02 PM AEST on September 26, 2016 (GMT +1000)
Cairns International

Weather History for YBCS - August, 2013

Change the Weather History Date:

Tuesday, August 27, 2013

  Actual Average Record
Temperature  
Mean Temperature 74 °F -  
Max Temperature 82 °F 77 °F 86 °F (2011)
Min Temperature 67 °F 63 °F 54 °F (2014)
Cooling Degree Days 10    
Growing Degree Days 24 (Base 50)    
Moisture  
Dew Point 62 °F    
Average Humidity 67    
Maximum Humidity 90    
Minimum Humidity 31    
Precipitation  
Precipitation 0.00 in - - ()
Sea Level Pressure  
Sea Level Pressure 30.07 in    
Wind  
Wind Speed 11 mph ()    
Max Wind Speed 20 mph    
Max Gust Speed -    
Visibility 6.7 miles    
Events Rain    
Averages and records for this station are not official NWS values.
T = Trace of Precipitation, MM = Missing Value Source: Averaged Metar Reports

Daily Weather History Graph

Daily Weather History Graph

Search for Another Location

Airport or City:

Trip Planner

Search our weather history database for the weather conditions in past years. The results will help you decide how hot, cold, wet, or windy it might be!

Date:

Astronomy

Aug. 27, 2013 Rise Set
Actual Time 6:27 AM AEST 6:09 PM AEST
Civil Twilight 6:05 AM AEST 6:31 PM AEST
Nautical Twilight 5:40 AM AEST 6:57 PM AEST
Astronomical Twilight 5:15 AM AEST 7:22 PM AEST
Moon 11:49 PM AEST (8/27) 10:39 AM AEST (8/27)
Length of Visible Light 12h 26m
Length of Day
11h 42m
Waning Gibbous, 63% of the Moon is Illuminated
Aug 27
Waning Gibbous
Aug 28
Last Quarter
Sep 5
New
Sep 13
First Quarter
Sep 19
Full

Hourly Weather History & Observations

Time (AEST) Temp. Heat Index Dew Point Humidity Pressure Visibility Wind Dir Wind Speed Gust Speed Precip Events Conditions
12:00 AM 69 °F - 64 °F 81% 30.09 in - South 11.5 mph - -   Overcast
12:00 AM 68.0 °F - 64.4 °F 88% 30.09 in 6.2 mi South 11.5 mph - N/A   Mostly Cloudy
12:30 AM 69.8 °F - 64.4 °F 83% 30.06 in 6.2 mi South 15.0 mph - N/A   Mostly Cloudy
1:00 AM 71 °F - 64 °F 71% 30.08 in - SSW 10.4 mph - -  
1:00 AM 69.8 °F - 64.4 °F 83% 30.06 in 6.2 mi SSW 10.4 mph - N/A   Mostly Cloudy
1:30 AM 69.8 °F - 62.6 °F 78% 30.06 in 6.2 mi South 10.4 mph - N/A   Mostly Cloudy
2:00 AM 69.8 °F - 62.6 °F 78% 30.06 in 6.2 mi South 10.4 mph - N/A   Mostly Cloudy
2:30 AM 69.8 °F - 62.6 °F 78% 30.04 in 6.2 mi South 11.5 mph - N/A   Mostly Cloudy
3:00 AM 70 °F - 63 °F 72% 30.05 in - South 12.7 mph - -   Overcast
3:00 AM 69.8 °F - 62.6 °F 78% 30.04 in 6.2 mi South 12.7 mph - N/A   Mostly Cloudy
3:30 AM 69.8 °F - 62.6 °F 78% 30.04 in 6.2 mi South 11.5 mph - N/A Rain Light Rain Showers
4:00 AM 69 °F - 65 °F 82% 30.05 in - SE 9.2 mph - -  
4:00 AM 68.0 °F - 64.4 °F 88% 30.04 in 6.2 mi SE 9.2 mph - N/A Rain Light Rain Showers
4:30 AM 69.8 °F - 62.6 °F 78% 30.04 in 6.2 mi South 10.4 mph - N/A   Mostly Cloudy
5:00 AM 69.8 °F - 62.6 °F 78% 30.04 in 6.2 mi South 11.5 mph - N/A   Mostly Cloudy
5:30 AM 71.6 °F - 60.8 °F 69% 30.04 in 6.2 mi South 10.4 mph - N/A Rain Light Rain Showers
6:00 AM 68.0 °F - 64.4 °F 88% 30.06 in 6.2 mi SSE 6.9 mph - N/A   Mostly Cloudy
6:30 AM 68.0 °F - 64.4 °F 88% 30.06 in 6.2 mi SSE 6.9 mph - N/A   Scattered Clouds
7:00 AM 67 °F - 65 °F 90% 30.10 in - SE 9.2 mph - -  
7:00 AM 68.0 °F - 64.4 °F 88% 30.09 in 6.2 mi SE 9.2 mph - N/A Rain Light Rain Showers
7:30 AM 68.0 °F - 64.4 °F 88% 30.09 in 6.2 mi SSE 8.1 mph - N/A   Mostly Cloudy
8:00 AM 69.8 °F - 62.6 °F 78% 30.09 in 6.2 mi South 9.2 mph - N/A   Mostly Cloudy
9:00 AM 72 °F - 63 °F 66% 30.12 in 19 mi South 9.2 mph - -   Partly Cloudy
9:00 AM 73.4 °F - 62.6 °F 69% 30.09 in 6.2 mi South 9.2 mph - N/A   Scattered Clouds
9:30 AM 75.2 °F - 64.4 °F 69% 30.09 in 6.2 mi SSE 10.4 mph - N/A   Scattered Clouds
10:00 AM 78 °F - 63 °F 51% 30.13 in - SSE 12.7 mph - -  
10:00 AM 77.0 °F - 62.6 °F 61% 30.12 in 6.2 mi SSE 12.7 mph - N/A   Partly Cloudy
10:30 AM 78.8 °F - 57.2 °F 47% 30.12 in 6.2 mi SE 18.4 mph - N/A   Partly Cloudy
11:00 AM 78.8 °F - 59.0 °F 51% 30.09 in 6.2 mi SE 19.6 mph - N/A   Partly Cloudy
11:30 AM 80.6 °F 80.5 °F 55.4 °F 42% 30.09 in 6.2 mi SSE 19.6 mph - N/A   Partly Cloudy
12:00 PM 82.4 °F 82.0 °F 57.2 °F 42% 30.06 in 6.2 mi SE 18.4 mph - N/A   Partly Cloudy
12:30 PM 82.4 °F 82.0 °F 57.2 °F 42% 30.06 in 6.2 mi SE 17.3 mph - N/A   Partly Cloudy
1:00 PM 81 °F - 56 °F 31% 30.07 in - SE 18.4 mph - -  
1:00 PM 80.6 °F 80.5 °F 55.4 °F 42% 30.06 in 6.2 mi SE 18.4 mph - N/A   Partly Cloudy
1:30 PM 80.6 °F 81.1 °F 59.0 °F 48% 30.06 in 6.2 mi SE 17.3 mph - N/A   Partly Cloudy
2:00 PM 82.4 °F 82.9 °F 60.8 °F 48% 30.04 in 6.2 mi SE 17.3 mph - N/A   Partly Cloudy
2:30 PM 80.6 °F 81.1 °F 59.0 °F 48% 30.04 in 6.2 mi ESE 18.4 mph - N/A   Partly Cloudy
3:00 PM 81 °F - 60 °F 38% 30.04 in 19 mi SE 18.4 mph - -   Partly Cloudy
3:00 PM 80.6 °F 81.1 °F 59.0 °F 48% 30.04 in 6.2 mi SE 18.4 mph - N/A   Partly Cloudy
3:30 PM 80.6 °F 81.5 °F 60.8 °F 51% 30.04 in 6.2 mi SE 15.0 mph - N/A   Partly Cloudy
4:00 PM 78.8 °F - 57.2 °F 47% 30.04 in 6.2 mi SSE 15.0 mph - N/A   Partly Cloudy
4:30 PM 78.8 °F - 59.0 °F 51% 30.04 in 6.2 mi SE 16.1 mph - N/A   Partly Cloudy
5:00 PM 77.0 °F - 60.8 °F 57% 30.04 in 6.2 mi SE 15.0 mph - N/A   Partly Cloudy
5:30 PM 75.2 °F - 62.6 °F 65% 30.04 in 6.2 mi SE 13.8 mph - N/A   Partly Cloudy
6:00 PM 74 °F - 61 °F 56% 30.06 in - SSE 18.4 mph - -  
6:00 PM 73.4 °F - 60.8 °F 65% 30.06 in 6.2 mi SSE 18.4 mph - N/A   Partly Cloudy
6:30 PM 73.4 °F - 60.8 °F 65% 30.06 in 6.2 mi SSE 15.0 mph - N/A   Partly Cloudy
7:00 PM 72 °F - 62 °F 62% 30.09 in - SSE 6.9 mph - -  
7:00 PM 71.6 °F - 60.8 °F 69% 30.06 in 6.2 mi SSE 6.9 mph - N/A   Partly Cloudy
7:30 PM 71.6 °F - 62.6 °F 73% 30.09 in 6.2 mi SSE 10.4 mph - N/A   Partly Cloudy
8:00 PM 71.6 °F - 62.6 °F 73% 30.09 in 6.2 mi SSE 9.2 mph - N/A   Partly Cloudy
8:30 PM 69.8 °F - 62.6 °F 78% 30.09 in 6.2 mi SSE 8.1 mph - N/A   Partly Cloudy
9:00 PM 70 °F - 63 °F 73% 30.12 in - SSE 10.4 mph - -  
9:00 PM 69.8 °F - 62.6 °F 78% 30.09 in 6.2 mi SSE 10.4 mph - N/A   Partly Cloudy
9:30 PM 69.8 °F - 62.6 °F 78% 30.09 in 6.2 mi South 8.1 mph - N/A   Partly Cloudy
10:00 PM 71 °F - 62 °F 65% 30.12 in - South 9.2 mph - -  
10:00 PM 69.8 °F - 62.6 °F 78% 30.09 in 6.2 mi South 9.2 mph - N/A   Partly Cloudy
10:30 PM 71.6 °F - 60.8 °F 69% 30.09 in 6.2 mi South 10.4 mph - N/A   Partly Cloudy
11:00 PM 71.6 °F - 62.6 °F 73% 30.09 in 6.2 mi South 9.2 mph - N/A   Partly Cloudy
11:30 PM 69.8 °F - 62.6 °F 78% 30.09 in 6.2 mi South 8.1 mph - N/A   Partly Cloudy